Location: Cran-Gévrier
(45.9039°N, 6.1012°E)
Time: 05:41:42
(UTC+00:00)

Cosmos 2074 Rocket - Pass Details

Date: 09 February 2023
Orbit: 967 x 986 km, 82.9° (Epoch: 29 March)

Event Time Altitude Azimuth Distance (km) Brightness Sun altitude
Rises 18:53:23 0° 355° (N) 3,703 7.1 -21.4°
Reaches altitude 10° 18:56:01 10° 1° (N) 2,752 6.4 -21.9°
Maximum altitude 19:02:08 50° 76° (ENE) 1,246 4.1 -22.9°
Enters shadow 19:02:59 47° 101° (E) 1,292 4.2 -23.1°
